Location: Newark
(7.0858°N, 171.3717°E)
Time: 09:18:49
(UTC+00:00)

S-56A Canister/Altair - Pass Details

Date: 04 December 2020
Orbit: 633 x 2499 km, 38.9° (Epoch: 27 January)

Event Time Altitude Azimuth Distance (km) Brightness Sun altitude
Rises 15:17:24 0° 289° (WNW) 3,122 - -45.8°
Reaches altitude 10° 15:20:21 10° 274° (W) 2,076 - -45.1°
Maximum altitude 15:23:53 22° 222° (SW) 1,381 - -44.3°
Drops below altitude 10° 15:27:22 10° 170° (S) 2,026 - -43.6°
Exits shadow 15:29:24 - 158° (SSE) 2,729 10.8 -43.1°
Sets 15:30:12 0° 155° (SSE) 3,025 11.1 -42.9°
